Location: ??????
(36.0418°N, 43.6351°E)
Time: 04:30:53
(UTC+00:00)

Cosmos 883 Rocket - Pass Details

Date: 18 June 2021
Orbit: 950 x 996 km, 83.0° (Epoch: 27 July)

Event Time Altitude Azimuth Distance (km) Brightness Sun altitude
Rises 00:16:01 0° 357° (N) 3,639 8.2 -15.6°
Reaches altitude 10° 00:18:34 10° 1° (N) 2,686 7.5 -15.2°
Maximum altitude 00:24:38 61° 81° (E) 1,071 5.0 -14.4°
Drops below altitude 10° 00:30:38 10° 162° (SSE) 2,665 6.6 -13.5°
Sets 00:33:09 0° 165° (SSE) 3,608 7.2 -13.1°
